Regional Weather Roundup
Issued by NWS

Home | Current Version | Previous Version | Text Only | Print | Product List | Glossary Off
Versions: 1 2 3 4 5 6 7 8 9 10 11 12 13 14 15 16 17 18 19 20 21 22 23 24 25 26 27 28 29 30 31 32 33 34 35 36 37 38 39 40 41 42 43 44 45 46 47 48 49 50

719
ASUS45 KBOU 191407
RWRCO

WEATHER ROUNDUP FOR COLORADO
NATIONAL WEATHER SERVICE DENVER/BOULDER CO
700 AM MST SUN FEB 19 2017

NOTE: "FAIR" INDICATES FEW OR NO CLOUDS BELOW 12000 FEET WITH NO
SIGNIFICANT WEATHER AND/OR OBSTRUCTIONS TO VISIBILITY.

COZ001>005-013-030-031-191500-
...NORTHWEST COLORADO...

CITY           SKY/WX    TMP DP  RH WIND       PRES   REMARKS
CRAIG          FAIR      29  25  85 CALM      29.73F
HAYDEN         FAIR      28  23  80 SE12      29.73F WCI  18
MEEKER         FAIR      28  26  92 CALM      29.72F
MOUNT WERNER   NOT AVBL
STEAMBOAT SPGS NOT AVBL
WALDEN         NOT AVBL
$$

COZ006>008-011-191500-
...WEST CENTRAL VALLEYS...

CITY           SKY/WX    TMP DP  RH WIND       PRES   REMARKS
GRAND JUNCTION CLOUDY    37  35  92 CALM      29.71R
MONTROSE       FAIR      31  29  92 SE7       29.76R WCI  24
EAGLE          PTCLDY    27  25  93 CALM      29.81R
RIFLE          FAIR      29  28  96 VRB3      29.74S
DELTA          MOCLDY    33  32  95 NE6       29.75R WCI  28
NUCLA          CLOUDY    36  32  87 CALM      29.77S
$$

COZ017>023-064>068-191500-
...SOUTHWEST COLORADO...

CITY           SKY/WX    TMP DP  RH WIND       PRES   REMARKS
DURANGO        LGT RAIN  34  34 100 NE6       29.82S WCI  29
CORTEZ         CLOUDY    41  35  79 SE6       29.78R
PAGOSA SPRINGS LGT SNOW  34  33  99 NE5       29.83F WCI  30
TELLURIDE      FAIR      35  21  57 CALM      29.80R
WOLF CREEK PAS LGT SNOW  21  21 100 S12       29.91F WCI   9
$$

COZ009-010-012-014-032>034-037-058>063-191500-
...CENTRAL COLORADO...

CITY           SKY/WX    TMP DP  RH WIND       PRES   REMARKS
ASPEN          FAIR      27  24  89 S5        29.75S WCI  22
BUENA VISTA    MOCLDY    32  27  81 W6        29.81R WCI  27
COPPER MTN     FAIR      32  12  43 S17G24    29.87R WCI  21
BERTHOUD PASS  FAIR      21  12  68 W24G30    29.84F WCI   4
COTTONWOOD PAS MOCLDY    34  23  64 S6        29.85R WCI  29
GUNNISON       FAIR      21  18  88 NE3       29.82S
KREMMLING      FAIR      27  23  86 SE3       29.81S
LEADVILLE      FAIR      27  20  75 CALM      29.81S
MONARCH PASS   LGT SNOW  23  19  86 SW17G28   29.99R WCI   9
SALIDA         FAIR      43  23  45 SE8       29.88R
SUNLIGHT       NOT AVBL
WILKERSON PASS FAIR      27  19  74 SW12G18   29.90R WCI  16
$$

COZ069>075-191500-
...SAN LUIS VALLEY/SANGRE DE CRISTO MOUNTAINS...

CITY           SKY/WX    TMP DP  RH WIND       PRES   REMARKS
ALAMOSA        CLOUDY    32  27  81 CALM      29.82F
LA VETA PASS   FAIR      30  21  69 NE22G33   29.85F WCI  17
SAGUACHE       CLOUDY    32  28  86 N5        29.85F WCI  27
$$

COZ035-036-038>040-191500-
...NORTHERN COLORADO FRONT RANGE...

CITY           SKY/WX    TMP DP  RH WIND       PRES   REMARKS
DENVER INTL AP MOCLDY    39  23  52 N3        29.68R
DMNS CITY PARK   N/A     38  24  58 E5G15     29.69R
AURORA         MOCLDY    43  24  47 CALM      29.69R
FRONT RANGE AP MOCLDY    41  25  52 NE3       29.69
ERIE MUNI ARPT FAIR      28  23  81 CALM      29.67S
BOULDER MUN AP FAIR      37  27  65 CALM      29.67S
CENTENNIAL     MOCLDY    47  23  38 S13       29.69R
BROOMFIELD     MOCLDY    43  23  45 NW8       29.68S
FORT COLLINS   FAIR      35  26  69 CALM      29.68S
LONGMONT       FAIR      32  26  77 N3        29.68F
$$

COZ041-046-047-076>085-087-088-191500-
...PIKES PEAK/PALMER DIVIDE AND SOUTHERN FOOTHILLS...

CITY           SKY/WX    TMP DP  RH WIND       PRES   REMARKS
COLO. SPRINGS  MOCLDY    36  24  62 N7        29.75R
A. F. ACADEMY  FAIR      31  22  67 N3        29.75R
SCHRIEVER AFB  MOCLDY    39  25  57 NE9       29.75S
ELLICOTT       FAIR     N/A N/A N/A MISG      29.73S
FALCON         NOT AVBL
FORT CARSON    CLOUDY    37  22  56 NW9       29.73S
LIMON          FAIR      41  29  62 S8G17     29.73S
MONUMENT HILL  FAIR      34  25  69 S10       29.76R WCI  26
TRINIDAD       FAIR      45  26  47 SW8       29.76R
$$

COZ042>045-048>051-090-091-191500-
...NORTHEAST COLORADO...

CITY           SKY/WX    TMP DP  RH WIND       PRES   REMARKS
GREELEY ARPT   NOT AVBL
AKRON          FAIR      42  27  55 W13       29.67R
BURLINGTON     FAIR      50  34  54 S18       29.69S
WRAY           NOT AVBL
STERLING       FAIR      32  25  74 SW3       29.66S
HOLYOKE        FAIR      36  30  80 CALM      29.68R
FORT MORGAN    FAIR      32  22  67 W8        29.67F WCI  24
$$

COZ086-089-092>099-191500-
...SOUTHEAST COLORADO...

CITY           SKY/WX    TMP DP  RH WIND       PRES   REMARKS
PUEBLO         FAIR      34  25  69 CALM      29.71S
LA JUNTA       FAIR      49  31  49 S6        29.72S
LAMAR          FAIR      47  34  60 S17       29.73R
SPRINGFIELD      N/A     43  35  73 S9        29.78R
$$




USA.gov is the U.S. government's official web portal to all federal, state and local government web resources and services.